| time (UTC) | temp C | wind direction | speed KPH | gust KPH | rain 1hr cm | rain 24hr cm | rain mn cm | humidity % | barometer mb |
| 20260510093016 | 7 | 0.0 | 3.2 | 0.00 | 0.71 | 0.05 | 91 | 1010.7 | |
| 20260510090017 | 7 | 0.0 | 1.6 | 0.00 | 0.71 | 0.05 | 91 | 1010.3 | |
| 20260510083017 | 7 | 0.0 | 0.0 | 0.00 | 0.71 | 0.05 | 91 | 1009.8 | |
| 20260510080016 | 7 | 0.0 | 1.6 | 0.00 | 0.71 | 0.05 | 91 | 1009.2 | |
| 20260510073016 | 7 | 0.0 | 1.6 | 0.00 | 0.71 | 0.05 | 91 | 1008.8 | |
| 20260510070016 | 8 | 0.0 | 1.6 | 0.00 | 0.71 | 0.05 | 91 | 1008.6 | |
| 20260510063016 | 8 | 0.0 | 4.8 | 0.00 | 0.71 | 0.05 | 90 | 1008.3 | |
| 20260510060016 | 8 | 158 | 1.6 | 9.7 | 0.05 | 0.71 | 0.05 | 90 | 1008.3 |
| 20260510053016 | 10 | 158 | 3.2 | 14.5 | 0.05 | 0.71 | 0.05 | 89 | 1007.4 |
| 20260510050016 | 12 | 0.0 | 8.0 | 0.00 | 0.66 | 0.00 | 90 | 1007.3 | |
| 20260510043036 | 11 | 0.0 | 1.6 | 0.00 | 0.69 | 0.00 | 91 | 1005.8 | |
| 20260510040016 | 12 | 0.0 | 3.2 | 0.00 | 0.74 | 0.74 | 89 | 1005.7 | |
| 20260510033056 | 11 | 0.0 | 4.8 | 0.00 | 0.76 | 0.74 | 91 | 1005.7 | |
| 20260510030017 | 12 | 0.0 | 4.8 | 0.00 | 0.76 | 0.74 | 90 | 1005.5 | |
| 20260510023037 | 11 | 0.0 | 6.4 | 0.00 | 0.76 | 0.74 | 92 | 1005.4 | |
| 20260510020017 | 11 | 0.0 | 1.6 | 0.00 | 0.76 | 0.74 | 92 | 1005.2 | |
| 20260510013037 | 11 | 0.0 | 1.6 | 0.00 | 0.76 | 0.74 | 91 | 1005.1 | |
| 20260510010037 | 12 | 0.0 | 4.8 | 0.00 | 0.76 | 0.74 | 91 | 1004.5 | |
| 20260510003016 | 12 | 45 | 1.6 | 8.0 | 0.00 | 0.79 | 0.74 | 90 | 1004.7 |
| 20260510000017 | 12 | 45 | 1.6 | 9.7 | 0.05 | 0.84 | 0.74 | 91 | 1004.5 |
| 20260509233016 | 12 | 90 | 1.6 | 11.3 | 0.66 | 0.94 | 0.74 | 91 | 1004.3 |
| 20260509230016 | 12 | 113 | 4.8 | 30.6 | 0.61 | 0.99 | 0.69 | 90 | 1004.9 |
| 20260509223016 | 19 | 45 | 3.2 | 16.1 | 0.00 | 0.41 | 0.08 | 57 | 1002.5 |
| 20260509220037 | 20 | 45 | 4.8 | 17.7 | 0.00 | 0.41 | 0.08 | 57 | 1002.5 |
| 20260509213016 | 21 | 45 | 4.8 | 22.5 | 0.00 | 0.41 | 0.08 | 53 | 1002.1 |
| 20260509210017 | 21 | 45 | 4.8 | 16.1 | 0.00 | 0.41 | 0.08 | 54 | 1002.6 |
| 20260509203037 | 21 | 45 | 3.2 | 16.1 | 0.00 | 0.41 | 0.08 | 57 | 1003.2 |
| 20260509200017 | 21 | 45 | 4.8 | 14.5 | 0.00 | 0.41 | 0.08 | 59 | 1003.4 |
| 20260509193016 | 21 | 45 | 4.8 | 11.3 | 0.00 | 0.41 | 0.08 | 58 | 1004.0 |
| 20260509190016 | 20 | 45 | 3.2 | 11.3 | 0.00 | 0.41 | 0.08 | 61 | 1004.3 |
| 20260509183016 | 20 | 45 | 3.2 | 12.9 | 0.00 | 0.41 | 0.08 | 58 | 1004.5 |
| 20260509180016 | 20 | 45 | 3.2 | 16.1 | 0.00 | 0.41 | 0.08 | 60 | 1004.5 |
| 20260509173016 | 20 | 45 | 3.2 | 14.5 | 0.00 | 0.41 | 0.08 | 64 | 1004.8 |
| 20260509170017 | 18 | 45 | 3.2 | 12.9 | 0.00 | 0.41 | 0.08 | 66 | 1004.8 |
| 20260509163016 | 17 | 45 | 3.2 | 12.9 | 0.00 | 0.41 | 0.08 | 70 | 1004.7 |
| 20260509160016 | 16 | 113 | 1.6 | 11.3 | 0.00 | 0.41 | 0.08 | 73 | 1005.5 |
| 20260509153016 | 15 | 45 | 3.2 | 12.9 | 0.00 | 0.41 | 0.08 | 78 | 1005.4 |
| 20260509150017 | 15 | 113 | 3.2 | 20.9 | 0.00 | 0.41 | 0.08 | 83 | 1005.2 |
| 20260509143057 | 14 | 45 | 1.6 | 14.5 | 0.00 | 0.41 | 0.08 | 88 | 1005.3 |
| 20260509140016 | 13 | 45 | 1.6 | 9.7 | 0.00 | 0.41 | 0.08 | 89 | 1005.2 |
| 20260509133016 | 12 | 0.0 | 4.8 | 0.00 | 0.41 | 0.08 | 91 | 1005.3 | |
| 20260509130016 | 12 | 0.0 | 4.8 | 0.00 | 0.41 | 0.08 | 92 | 1005.4 | |
| 20260509123016 | 11 | 0.0 | 4.8 | 0.00 | 0.43 | 0.08 | 92 | 1005.6 | |
| 20260509120016 | 11 | 0.0 | 4.8 | 0.00 | 0.43 | 0.08 | 92 | 1005.6 | |
| 20260509113016 | 10 | 0.0 | 3.2 | 0.00 | 0.46 | 0.08 | 92 | 1005.5 | |
| 20260509110016 | 10 | 0.0 | 3.2 | 0.00 | 0.46 | 0.08 | 92 | 1005.2 | |
| 20260509103016 | 10 | 0.0 | 4.8 | 0.00 | 0.46 | 0.08 | 92 | 1005.4 | |
| 20260509100016 | 10 | 0.0 | 3.2 | 0.00 | 0.46 | 0.08 | 92 | 1005.6 |